owner,sensor,date,latitude,longitude,vertical_datum,sea_water_practical_salinity,qcFlag 
SCCF RECON,ioos:station:SCCF:51:1,2009-02-01T00:00:00Z,26.5545,-82.1715,1.589,35.68,1111122 
SCCF RECON,ioos:station:SCCF:51:1,2009-02-01T01:00:00Z,26.5545,-82.1715,1.501,35.73,1111122 
SCCF RECON,ioos:station:SCCF:51:1,2009-02-01T02:00:00Z,26.5545,-82.1715,1.427,35.73,1111122 
SCCF RECON,ioos:station:SCCF:51:1,2009-02-01T03:00:00Z,26.5545,-82.1715,1.367,35.71,1111122 
SCCF RECON,ioos:station:SCCF:51:1,2009-02-01T04:00:00Z,26.5545,-82.1715,1.361,35.72,1111122 
SCCF RECON,ioos:station:SCCF:51:1,2009-02-01T05:00:00Z,26.5545,-82.1715,1.387,35.72,1111122 
SCCF RECON,ioos:station:SCCF:51:1,2009-02-01T06:00:00Z,26.5545,-82.1715,1.445,35.76,1111122 
SCCF RECON,ioos:station:SCCF:51:1,2009-02-01T07:00:00Z,26.5545,-82.1715,1.512,35.73,1111122 
SCCF RECON,ioos:station:SCCF:51:1,2009-02-01T08:00:00Z,26.5545,-82.1715,1.586,35.72,1111122 
SCCF RECON,ioos:station:SCCF:51:1,2009-02-01T09:00:00Z,26.5545,-82.1715,1.63,35.65,1111122 
SCCF RECON,ioos:station:SCCF:51:1,2009-02-01T10:00:00Z,26.5545,-82.1715,1.652,35.66,1111122 
SCCF RECON,ioos:station:SCCF:51:1,2009-02-01T11:00:00Z,26.5545,-82.1715,1.633,35.66,1111122 
SCCF RECON,ioos:station:SCCF:51:1,2009-02-01T12:00:00Z,26.5545,-82.1715,1.586,35.74,1111122 
SCCF RECON,ioos:station:SCCF:51:1,2009-02-01T13:00:00Z,26.5545,-82.1715,1.533,35.76,1111122 
SCCF RECON,ioos:station:SCCF:51:1,2009-02-01T14:00:00Z,26.5545,-82.1715,1.484,35.77,1111122 
SCCF RECON,ioos:station:SCCF:51:1,2009-02-01T15:00:00Z,26.5545,-82.1715,1.475,35.77,1111122 
SCCF RECON,ioos:station:SCCF:51:1,2009-02-01T16:00:00Z,26.5545,-82.1715,1.513,35.77,1111122 
SCCF RECON,ioos:station:SCCF:51:1,2009-02-01T17:00:00Z,26.5545,-82.1715,1.553,35.73,1111122 
SCCF RECON,ioos:station:SCCF:51:1,2009-02-01T18:00:00Z,26.5545,-82.1715,1.627,35.7,1111122 
SCCF RECON,ioos:station:SCCF:51:1,2009-02-01T19:00:00Z,26.5545,-82.1715,1.715,35.68,1111122 
SCCF RECON,ioos:station:SCCF:51:1,2009-02-01T20:00:00Z,26.5545,-82.1715,1.804,35.61,1111122 
SCCF RECON,ioos:station:SCCF:51:1,2009-02-01T21:00:00Z,26.5545,-82.1715,1.875,35.62,1111122 
SCCF RECON,ioos:station:SCCF:51:1,2009-02-01T22:00:00Z,26.5545,-82.1715,1.89,35.66,1111122 
SCCF RECON,ioos:station:SCCF:51:1,2009-02-01T23:00:00Z,26.5545,-82.1715,1.86,35.68,1111122 
SCCF RECON,ioos:station:SCCF:51:1,2009-02-02T00:00:00Z,26.5545,-82.1715,1.78,35.72,1111122 
SCCF RECON,ioos:station:SCCF:51:1,2009-02-02T01:00:00Z,26.5545,-82.1715,1.68,35.75,1111122 
SCCF RECON,ioos:station:SCCF:51:1,2009-02-02T02:00:00Z,26.5545,-82.1715,1.588,35.76,1111122 
SCCF RECON,ioos:station:SCCF:51:1,2009-02-02T03:00:00Z,26.5545,-82.1715,1.5,35.75,1111122 
SCCF RECON,ioos:station:SCCF:51:1,2009-02-02T04:00:00Z,26.5545,-82.1715,1.42,35.74,1111122 
SCCF RECON,ioos:station:SCCF:51:1,2009-02-02T05:00:00Z,26.5545,-82.1715,1.39,35.74,1111122 
SCCF RECON,ioos:station:SCCF:51:1,2009-02-02T06:00:00Z,26.5545,-82.1715,1.407,35.75,1111122 
SCCF RECON,ioos:station:SCCF:51:1,2009-02-02T07:00:00Z,26.5545,-82.1715,1.444,35.77,1111122 
SCCF RECON,ioos:station:SCCF:51:1,2009-02-02T08:00:00Z,26.5545,-82.1715,1.539,35.75,1111122 
SCCF RECON,ioos:station:SCCF:51:1,2009-02-02T09:00:00Z,26.5545,-82.1715,1.6,35.67,1111122 
SCCF RECON,ioos:station:SCCF:51:1,2009-02-02T10:00:00Z,26.5545,-82.1715,1.67,35.68,1111122 
SCCF RECON,ioos:station:SCCF:51:1,2009-02-02T11:00:00Z,26.5545,-82.1715,1.708,35.7,1111122 
SCCF RECON,ioos:station:SCCF:51:1,2009-02-02T12:00:00Z,26.5545,-82.1715,1.738,35.7,1111122 
SCCF RECON,ioos:station:SCCF:51:1,2009-02-02T13:00:00Z,26.5545,-82.1715,1.694,35.73,1111122 
SCCF RECON,ioos:station:SCCF:51:1,2009-02-02T14:00:00Z,26.5545,-82.1715,1.667,35.73,1111122 
SCCF RECON,ioos:station:SCCF:51:1,2009-02-02T15:00:00Z,26.5545,-82.1715,1.645,35.7,1111122 
SCCF RECON,ioos:station:SCCF:51:1,2009-02-02T16:00:00Z,26.5545,-82.1715,1.636,35.69,1111122 
SCCF RECON,ioos:station:SCCF:51:1,2009-02-02T17:00:00Z,26.5545,-82.1715,1.671,35.71,1111122 
SCCF RECON,ioos:station:SCCF:51:1,2009-02-02T18:00:00Z,26.5545,-82.1715,1.733,35.69,1111122 
SCCF RECON,ioos:station:SCCF:51:1,2009-02-02T19:00:00Z,26.5545,-82.1715,1.848,35.63,1111122 
SCCF RECON,ioos:station:SCCF:51:1,2009-02-02T20:00:00Z,26.5545,-82.1715,1.933,35.6,1111122 
SCCF RECON,ioos:station:SCCF:51:1,2009-02-02T21:00:00Z,26.5545,-82.1715,1.988,35.59,1111122 
SCCF RECON,ioos:station:SCCF:51:1,2009-02-02T22:00:00Z,26.5545,-82.1715,2.058,35.59,1111122 
SCCF RECON,ioos:station:SCCF:51:1,2009-02-02T23:00:00Z,26.5545,-82.1715,2.086,35.58,1111122 
SCCF RECON,ioos:station:SCCF:51:1,2009-02-03T00:00:00Z,26.5545,-82.1715,2.029,35.58,1111122 
SCCF RECON,ioos:station:SCCF:51:1,2009-02-03T01:00:00Z,26.5545,-82.1715,1.941,35.62,1111122 
SCCF RECON,ioos:station:SCCF:51:1,2009-02-03T02:00:00Z,26.5545,-82.1715,1.827,35.59,1111122 
SCCF RECON,ioos:station:SCCF:51:1,2009-02-03T03:00:00Z,26.5545,-82.1715,1.725,35.51,1111122 
SCCF RECON,ioos:station:SCCF:51:1,2009-02-03T04:00:00Z,26.5545,-82.1715,1.631,35.57,1111122 
SCCF RECON,ioos:station:SCCF:51:1,2009-02-03T05:00:00Z,26.5545,-82.1715,1.536,35.57,1111122 
SCCF RECON,ioos:station:SCCF:51:1,2009-02-03T06:00:00Z,26.5545,-82.1715,1.461,35.48,1111122 
SCCF RECON,ioos:station:SCCF:51:1,2009-02-03T07:00:00Z,26.5545,-82.1715,1.405,35.44,1111122 
SCCF RECON,ioos:station:SCCF:51:1,2009-02-03T08:00:00Z,26.5545,-82.1715,1.399,35.51,1111122 
SCCF RECON,ioos:station:SCCF:51:1,2009-02-03T09:00:00Z,26.5545,-82.1715,1.454,35.57,1111122 
SCCF RECON,ioos:station:SCCF:51:1,2009-02-03T10:00:00Z,26.5545,-82.1715,1.536,35.65,1111122 
SCCF RECON,ioos:station:SCCF:51:1,2009-02-03T11:00:00Z,26.5545,-82.1715,1.628,35.58,1111122 
SCCF RECON,ioos:station:SCCF:51:1,2009-02-03T12:00:00Z,26.5545,-82.1715,1.695,35.58,1111122 
SCCF RECON,ioos:station:SCCF:51:1,2009-02-03T13:00:00Z,26.5545,-82.1715,1.669,35.63,1111122 
SCCF RECON,ioos:station:SCCF:51:1,2009-02-03T14:00:00Z,26.5545,-82.1715,1.641,35.65,1111122 
SCCF RECON,ioos:station:SCCF:51:1,2009-02-03T15:00:00Z,26.5545,-82.1715,1.622,35.68,1111122 
SCCF RECON,ioos:station:SCCF:51:1,2009-02-03T16:00:00Z,26.5545,-82.1715,1.609,35.71,1111122 
SCCF RECON,ioos:station:SCCF:51:1,2009-02-03T17:00:00Z,26.5545,-82.1715,1.621,35.67,1111122 
SCCF RECON,ioos:station:SCCF:51:1,2009-02-03T18:00:00Z,26.5545,-82.1715,1.646,35.59,1111122 
SCCF RECON,ioos:station:SCCF:51:1,2009-02-03T19:00:00Z,26.5545,-82.1715,1.684,35.59,1111122 
SCCF RECON,ioos:station:SCCF:51:1,2009-02-03T20:00:00Z,26.5545,-82.1715,1.715,35.63,1111122 
SCCF RECON,ioos:station:SCCF:51:1,2009-02-03T21:00:00Z,26.5545,-82.1715,1.758,35.59,1111122 
SCCF RECON,ioos:station:SCCF:51:1,2009-02-03T22:00:00Z,26.5545,-82.1715,1.791,35.62,1111122 
SCCF RECON,ioos:station:SCCF:51:1,2009-02-03T23:00:00Z,26.5545,-82.1715,1.812,35.63,1111122 
SCCF RECON,ioos:station:SCCF:51:1,2009-02-04T00:00:00Z,26.5545,-82.1715,1.81,35.57,1111122 
SCCF RECON,ioos:station:SCCF:51:1,2009-02-04T01:00:00Z,26.5545,-82.1715,1.779,35.58,1111122 
SCCF RECON,ioos:station:SCCF:51:1,2009-02-04T02:00:00Z,26.5545,-82.1715,1.718,35.59,1111122 
SCCF RECON,ioos:station:SCCF:51:1,2009-02-04T03:00:00Z,26.5545,-82.1715,1.644,35.59,1111122 
SCCF RECON,ioos:station:SCCF:51:1,2009-02-04T04:00:00Z,26.5545,-82.1715,1.558,35.6,1111122 
SCCF RECON,ioos:station:SCCF:51:1,2009-02-04T05:00:00Z,26.5545,-82.1715,1.473,35.58,1111122 
SCCF RECON,ioos:station:SCCF:51:1,2009-02-04T06:00:00Z,26.5545,-82.1715,1.392,35.6,1111122 
SCCF RECON,ioos:station:SCCF:51:1,2009-02-04T07:00:00Z,26.5545,-82.1715,1.33,35.61,1111122 
SCCF RECON,ioos:station:SCCF:51:1,2009-02-04T08:00:00Z,26.5545,-82.1715,1.295,35.59,1111122 
SCCF RECON,ioos:station:SCCF:51:1,2009-02-04T09:00:00Z,26.5545,-82.1715,1.303,35.61,1111122 
SCCF RECON,ioos:station:SCCF:51:1,2009-02-04T10:00:00Z,26.5545,-82.1715,1.36,35.63,1111122 
SCCF RECON,ioos:station:SCCF:51:1,2009-02-04T11:00:00Z,26.5545,-82.1715,1.443,35.63,1111122 
SCCF RECON,ioos:station:SCCF:51:1,2009-02-04T12:00:00Z,26.5545,-82.1715,1.539,35.64,1111122 
SCCF RECON,ioos:station:SCCF:51:1,2009-02-04T13:00:00Z,26.5545,-82.1715,1.662,35.55,1111122 
SCCF RECON,ioos:station:SCCF:51:1,2009-02-04T14:00:00Z,26.5545,-82.1715,1.704,35.57,1111122 
SCCF RECON,ioos:station:SCCF:51:1,2009-02-04T15:00:00Z,26.5545,-82.1715,1.716,35.57,1111122 
SCCF RECON,ioos:station:SCCF:51:1,2009-02-04T16:00:00Z,26.5545,-82.1715,1.709,35.55,1111122 
SCCF RECON,ioos:station:SCCF:51:1,2009-02-04T17:00:00Z,26.5545,-82.1715,1.707,35.66,1111122 
SCCF RECON,ioos:station:SCCF:51:1,2009-02-04T18:00:00Z,26.5545,-82.1715,1.709,35.56,1111122 
SCCF RECON,ioos:station:SCCF:51:1,2009-02-04T19:00:00Z,26.5545,-82.1715,1.728,35.66,1111122 
SCCF RECON,ioos:station:SCCF:51:1,2009-02-04T20:00:00Z,26.5545,-82.1715,1.765,35.54,1111122 
SCCF RECON,ioos:station:SCCF:51:1,2009-02-04T21:00:00Z,26.5545,-82.1715,1.8,35.45,1111122 
SCCF RECON,ioos:station:SCCF:51:1,2009-02-04T22:00:00Z,26.5545,-82.1715,1.84,35.47,1111122 
SCCF RECON,ioos:station:SCCF:51:1,2009-02-04T23:00:00Z,26.5545,-82.1715,1.881,35.52,1111122 
SCCF RECON,ioos:station:SCCF:51:1,2009-02-05T00:00:00Z,26.5545,-82.1715,1.893,35.55,1111122 
SCCF RECON,ioos:station:SCCF:51:1,2009-02-05T01:00:00Z,26.5545,-82.1715,1.885,35.58,1111122 
SCCF RECON,ioos:station:SCCF:51:1,2009-02-05T02:00:00Z,26.5545,-82.1715,1.855,35.59,1111122 
SCCF RECON,ioos:station:SCCF:51:1,2009-02-05T03:00:00Z,26.5545,-82.1715,1.794,35.58,1111122 
SCCF RECON,ioos:station:SCCF:51:1,2009-02-05T04:00:00Z,26.5545,-82.1715,1.699,35.6,1111122 
SCCF RECON,ioos:station:SCCF:51:1,2009-02-05T05:00:00Z,26.5545,-82.1715,1.596,35.6,1111122 
SCCF RECON,ioos:station:SCCF:51:1,2009-02-05T06:00:00Z,26.5545,-82.1715,1.483,35.59,1111122 
SCCF RECON,ioos:station:SCCF:51:1,2009-02-05T07:00:00Z,26.5545,-82.1715,1.361,35.59,1111122 
SCCF RECON,ioos:station:SCCF:51:1,2009-02-05T08:00:00Z,26.5545,-82.1715,1.273,35.62,1111122 
SCCF RECON,ioos:station:SCCF:51:1,2009-02-05T09:00:00Z,26.5545,-82.1715,1.189,35.62,1111122 
SCCF RECON,ioos:station:SCCF:51:1,2009-02-05T10:00:00Z,26.5545,-82.1715,1.135,35.64,1111122 
SCCF RECON,ioos:station:SCCF:51:1,2009-02-05T11:00:00Z,26.5545,-82.1715,1.141,35.54,1111122 
SCCF RECON,ioos:station:SCCF:51:1,2009-02-05T12:00:00Z,26.5545,-82.1715,1.196,35.6,1111122 
SCCF RECON,ioos:station:SCCF:51:1,2009-02-05T13:00:00Z,26.5545,-82.1715,1.275,35.64,1111122 
SCCF RECON,ioos:station:SCCF:51:1,2009-02-05T14:00:00Z,26.5545,-82.1715,1.364,35.65,1111122 
SCCF RECON,ioos:station:SCCF:51:1,2009-02-05T15:00:00Z,26.5545,-82.1715,1.449,35.78,1111122 
SCCF RECON,ioos:station:SCCF:51:1,2009-02-05T16:00:00Z,26.5545,-82.1715,1.508,35.79,1111122 
SCCF RECON,ioos:station:SCCF:51:1,2009-02-05T17:00:00Z,26.5545,-82.1715,1.547,35.74,1111122 
SCCF RECON,ioos:station:SCCF:51:1,2009-02-05T18:00:00Z,26.5545,-82.1715,1.568,35.75,1111122 
SCCF RECON,ioos:station:SCCF:51:1,2009-02-05T19:00:00Z,26.5545,-82.1715,1.569,35.72,1111122 
SCCF RECON,ioos:station:SCCF:51:1,2009-02-05T20:00:00Z,26.5545,-82.1715,1.597,35.72,1111122 
SCCF RECON,ioos:station:SCCF:51:1,2009-02-05T21:00:00Z,26.5545,-82.1715,1.651,35.7,1111122 
SCCF RECON,ioos:station:SCCF:51:1,2009-02-05T22:00:00Z,26.5545,-82.1715,1.729,35.72,1111122 
SCCF RECON,ioos:station:SCCF:51:1,2009-02-05T23:00:00Z,26.5545,-82.1715,1.824,35.59,1111122 
SCCF RECON,ioos:station:SCCF:51:1,2009-02-06T00:00:00Z,26.5545,-82.1715,1.907,35.56,1111122 
SCCF RECON,ioos:station:SCCF:51:1,2009-02-06T01:00:00Z,26.5545,-82.1715,1.963,35.55,1111122 
SCCF RECON,ioos:station:SCCF:51:1,2009-02-06T02:00:00Z,26.5545,-82.1715,1.98,35.55,1111122 
SCCF RECON,ioos:station:SCCF:51:1,2009-02-06T03:00:00Z,26.5545,-82.1715,1.937,35.56,1111122 
SCCF RECON,ioos:station:SCCF:51:1,2009-02-06T04:00:00Z,26.5545,-82.1715,1.857,35.61,1111122 
SCCF RECON,ioos:station:SCCF:51:1,2009-02-06T05:00:00Z,26.5545,-82.1715,1.75,35.65,1111122 
SCCF RECON,ioos:station:SCCF:51:1,2009-02-06T06:00:00Z,26.5545,-82.1715,1.625,35.73,1111122 
SCCF RECON,ioos:station:SCCF:51:1,2009-02-06T07:00:00Z,26.5545,-82.1715,1.506,35.74,1111122 
SCCF RECON,ioos:station:SCCF:51:1,2009-02-06T08:00:00Z,26.5545,-82.1715,1.387,35.79,1111122 
SCCF RECON,ioos:station:SCCF:51:1,2009-02-06T09:00:00Z,26.5545,-82.1715,1.283,35.81,1111122 
SCCF RECON,ioos:station:SCCF:51:1,2009-02-06T10:00:00Z,26.5545,-82.1715,1.202,35.75,1111122 
SCCF RECON,ioos:station:SCCF:51:1,2009-02-06T11:00:00Z,26.5545,-82.1715,1.181,35.73,1111122 
SCCF RECON,ioos:station:SCCF:51:1,2009-02-06T12:00:00Z,26.5545,-82.1715,1.24,35.77,1111122 
SCCF RECON,ioos:station:SCCF:51:1,2009-02-06T13:00:00Z,26.5545,-82.1715,1.339,35.85,1111122 
SCCF RECON,ioos:station:SCCF:51:1,2009-02-06T14:00:00Z,26.5545,-82.1715,1.461,35.87,1111122 
SCCF RECON,ioos:station:SCCF:51:1,2009-02-06T15:00:00Z,26.5545,-82.1715,1.582,35.7,1111122 
SCCF RECON,ioos:station:SCCF:51:1,2009-02-06T16:00:00Z,26.5545,-82.1715,1.673,35.62,1111122 
SCCF RECON,ioos:station:SCCF:51:1,2009-02-06T17:00:00Z,26.5545,-82.1715,1.728,35.57,1111122 
SCCF RECON,ioos:station:SCCF:51:1,2009-02-06T18:00:00Z,26.5545,-82.1715,1.73,35.6,1111122 
SCCF RECON,ioos:station:SCCF:51:1,2009-02-06T19:00:00Z,26.5545,-82.1715,1.7,35.7,1111122 
SCCF RECON,ioos:station:SCCF:51:1,2009-02-06T20:00:00Z,26.5545,-82.1715,1.682,35.72,1111122 
SCCF RECON,ioos:station:SCCF:51:1,2009-02-06T21:00:00Z,26.5545,-82.1715,1.716,35.69,1111122 
SCCF RECON,ioos:station:SCCF:51:1,2009-02-06T22:00:00Z,26.5545,-82.1715,1.79,35.61,1111122 
SCCF RECON,ioos:station:SCCF:51:1,2009-02-06T23:00:00Z,26.5545,-82.1715,1.884,35.62,1111122 
SCCF RECON,ioos:station:SCCF:51:1,2009-02-07T00:00:00Z,26.5545,-82.1715,1.97,35.58,1111122 
SCCF RECON,ioos:station:SCCF:51:1,2009-02-07T01:00:00Z,26.5545,-82.1715,2.04,35.58,1111122 
SCCF RECON,ioos:station:SCCF:51:1,2009-02-07T02:00:00Z,26.5545,-82.1715,2.08,35.55,1111122 
SCCF RECON,ioos:station:SCCF:51:1,2009-02-07T03:00:00Z,26.5545,-82.1715,2.081,35.55,1111122 
SCCF RECON,ioos:station:SCCF:51:1,2009-02-07T04:00:00Z,26.5545,-82.1715,2.047,35.57,1111122 
SCCF RECON,ioos:station:SCCF:51:1,2009-02-07T05:00:00Z,26.5545,-82.1715,1.97,35.6,1111122 
SCCF RECON,ioos:station:SCCF:51:1,2009-02-07T06:00:00Z,26.5545,-82.1715,1.85,35.65,1111122 
SCCF RECON,ioos:station:SCCF:51:1,2009-02-07T07:00:00Z,26.5545,-82.1715,1.708,35.69,1111122 
SCCF RECON,ioos:station:SCCF:51:1,2009-02-07T08:00:00Z,26.5545,-82.1715,1.561,35.75,1111122 
SCCF RECON,ioos:station:SCCF:51:1,2009-02-07T09:00:00Z,26.5545,-82.1715,1.425,35.76,1111122 
SCCF RECON,ioos:station:SCCF:51:1,2009-02-07T10:00:00Z,26.5545,-82.1715,1.305,35.74,1111122 
SCCF RECON,ioos:station:SCCF:51:1,2009-02-07T11:00:00Z,26.5545,-82.1715,1.22,35.73,1111122 
SCCF RECON,ioos:station:SCCF:51:1,2009-02-07T12:00:00Z,26.5545,-82.1715,1.212,35.74,1111122 
SCCF RECON,ioos:station:SCCF:51:1,2009-02-07T13:00:00Z,26.5545,-82.1715,1.306,35.76,1111122 
SCCF RECON,ioos:station:SCCF:51:1,2009-02-07T14:00:00Z,26.5545,-82.1715,1.446,35.74,1111122 
SCCF RECON,ioos:station:SCCF:51:1,2009-02-07T15:00:00Z,26.5545,-82.1715,1.591,35.64,1111122 
SCCF RECON,ioos:station:SCCF:51:1,2009-02-07T16:00:00Z,26.5545,-82.1715,1.708,35.63,1111122 
SCCF RECON,ioos:station:SCCF:51:1,2009-02-07T17:00:00Z,26.5545,-82.1715,1.79,35.59,1111122 
SCCF RECON,ioos:station:SCCF:51:1,2009-02-07T18:00:00Z,26.5545,-82.1715,1.823,35.65,1111122 
SCCF RECON,ioos:station:SCCF:51:1,2009-02-07T19:00:00Z,26.5545,-82.1715,1.784,35.64,1111122 
SCCF RECON,ioos:station:SCCF:51:1,2009-02-07T20:00:00Z,26.5545,-82.1715,1.725,35.71,1111122 
SCCF RECON,ioos:station:SCCF:51:1,2009-02-07T21:00:00Z,26.5545,-82.1715,1.686,35.73,1111122 
SCCF RECON,ioos:station:SCCF:51:1,2009-02-07T22:00:00Z,26.5545,-82.1715,1.711,35.74,1111122 
SCCF RECON,ioos:station:SCCF:51:1,2009-02-07T23:00:00Z,26.5545,-82.1715,1.772,35.68,1111122 
SCCF RECON,ioos:station:SCCF:51:1,2009-02-08T00:00:00Z,26.5545,-82.1715,1.85,35.63,1111122 
SCCF RECON,ioos:station:SCCF:51:1,2009-02-08T01:00:00Z,26.5545,-82.1715,1.94,35.61,1111122 
SCCF RECON,ioos:station:SCCF:51:1,2009-02-08T02:00:00Z,26.5545,-82.1715,2.03,35.53,1111122 
SCCF RECON,ioos:station:SCCF:51:1,2009-02-08T03:00:00Z,26.5545,-82.1715,2.098,35.5,1111122 
SCCF RECON,ioos:station:SCCF:51:1,2009-02-08T04:00:00Z,26.5545,-82.1715,2.13,35.51,1111122 
SCCF RECON,ioos:station:SCCF:51:1,2009-02-08T05:00:00Z,26.5545,-82.1715,2.09,35.53,1111122 
SCCF RECON,ioos:station:SCCF:51:1,2009-02-08T06:00:00Z,26.5545,-82.1715,1.991,35.59,1111122 
SCCF RECON,ioos:station:SCCF:51:1,2009-02-08T07:00:00Z,26.5545,-82.1715,1.858,35.64,1111122 
SCCF RECON,ioos:station:SCCF:51:1,2009-02-08T08:00:00Z,26.5545,-82.1715,1.699,35.71,1111122 
SCCF RECON,ioos:station:SCCF:51:1,2009-02-08T09:00:00Z,26.5545,-82.1715,1.554,35.67,1111122 
SCCF RECON,ioos:station:SCCF:51:1,2009-02-08T10:00:00Z,26.5545,-82.1715,1.42,35.75,1111122 
SCCF RECON,ioos:station:SCCF:51:1,2009-02-08T11:00:00Z,26.5545,-82.1715,1.299,35.71,1111122 
SCCF RECON,ioos:station:SCCF:51:1,2009-02-08T12:00:00Z,26.5545,-82.1715,1.209,35.64,1111122 
SCCF RECON,ioos:station:SCCF:51:1,2009-02-08T13:00:00Z,26.5545,-82.1715,1.216,35.61,1111122 
SCCF RECON,ioos:station:SCCF:51:1,2009-02-08T14:00:00Z,26.5545,-82.1715,1.312,35.65,1111122 
SCCF RECON,ioos:station:SCCF:51:1,2009-02-08T15:00:00Z,26.5545,-82.1715,1.456,35.72,1111122 
SCCF RECON,ioos:station:SCCF:51:1,2009-02-08T16:00:00Z,26.5545,-82.1715,1.589,35.6,1111122 
SCCF RECON,ioos:station:SCCF:51:1,2009-02-08T17:00:00Z,26.5545,-82.1715,1.68,35.57,1111122 
SCCF RECON,ioos:station:SCCF:51:1,2009-02-08T18:00:00Z,26.5545,-82.1715,1.734,35.65,1111122 
SCCF RECON,ioos:station:SCCF:51:1,2009-02-08T19:00:00Z,26.5545,-82.1715,1.715,35.6,1111122 
SCCF RECON,ioos:station:SCCF:51:1,2009-02-08T20:00:00Z,26.5545,-82.1715,1.652,35.7,1111122 
SCCF RECON,ioos:station:SCCF:51:1,2009-02-08T21:00:00Z,26.5545,-82.1715,1.587,35.75,1111122 
SCCF RECON,ioos:station:SCCF:51:1,2009-02-08T22:00:00Z,26.5545,-82.1715,1.56,35.8,1111122 
SCCF RECON,ioos:station:SCCF:51:1,2009-02-08T23:00:00Z,26.5545,-82.1715,1.607,35.8,1111122 
SCCF RECON,ioos:station:SCCF:51:1,2009-02-09T00:00:00Z,26.5545,-82.1715,1.691,35.69,1111122 
SCCF RECON,ioos:station:SCCF:51:1,2009-02-09T01:00:00Z,26.5545,-82.1715,1.773,35.61,1111122 
SCCF RECON,ioos:station:SCCF:51:1,2009-02-09T02:00:00Z,26.5545,-82.1715,1.87,35.59,1111122 
SCCF RECON,ioos:station:SCCF:51:1,2009-02-09T03:00:00Z,26.5545,-82.1715,1.98,35.54,1111122 
SCCF RECON,ioos:station:SCCF:51:1,2009-02-09T04:00:00Z,26.5545,-82.1715,2.059,35.52,1111122 
SCCF RECON,ioos:station:SCCF:51:1,2009-02-09T05:00:00Z,26.5545,-82.1715,2.1,35.56,1111122 
SCCF RECON,ioos:station:SCCF:51:1,2009-02-09T06:00:00Z,26.5545,-82.1715,2.069,35.56,1111122 
SCCF RECON,ioos:station:SCCF:51:1,2009-02-09T07:00:00Z,26.5545,-82.1715,1.97,35.57,1111122 
SCCF RECON,ioos:station:SCCF:51:1,2009-02-09T08:00:00Z,26.5545,-82.1715,1.829,35.66,1111122 
SCCF RECON,ioos:station:SCCF:51:1,2009-02-09T09:00:00Z,26.5545,-82.1715,1.672,35.79,1111122 
SCCF RECON,ioos:station:SCCF:51:1,2009-02-09T10:00:00Z,26.5545,-82.1715,1.53,35.81,1111122 
SCCF RECON,ioos:station:SCCF:51:1,2009-02-09T11:00:00Z,26.5545,-82.1715,1.401,35.84,1111122 
SCCF RECON,ioos:station:SCCF:51:1,2009-02-09T12:00:00Z,26.5545,-82.1715,1.293,35.83,1111122 
SCCF RECON,ioos:station:SCCF:51:1,2009-02-09T13:00:00Z,26.5545,-82.1715,1.256,35.77,1111122 
SCCF RECON,ioos:station:SCCF:51:1,2009-02-09T14:00:00Z,26.5545,-82.1715,1.325,35.76,1111122 
SCCF RECON,ioos:station:SCCF:51:1,2009-02-09T15:00:00Z,26.5545,-82.1715,1.447,35.7,1111122 
SCCF RECON,ioos:station:SCCF:51:1,2009-02-09T16:00:00Z,26.5545,-82.1715,1.595,35.65,1111122 
SCCF RECON,ioos:station:SCCF:51:1,2009-02-09T18:00:00Z,26.5545,-82.1715,1.813,35.62,1111122 
SCCF RECON,ioos:station:SCCF:51:1,2009-02-09T19:00:00Z,26.5545,-82.1715,1.845,35.66,1111122 
SCCF RECON,ioos:station:SCCF:51:1,2009-02-09T20:00:00Z,26.5545,-82.1715,1.796,35.7,1111122 
SCCF RECON,ioos:station:SCCF:51:1,2009-02-09T21:00:00Z,26.5545,-82.1715,1.712,35.83,1111122 
SCCF RECON,ioos:station:SCCF:51:1,2009-02-09T22:00:00Z,26.5545,-82.1715,1.63,35.82,1111122 
SCCF RECON,ioos:station:SCCF:51:1,2009-02-09T23:00:00Z,26.5545,-82.1715,1.59,35.85,1111122 
SCCF RECON,ioos:station:SCCF:51:1,2009-02-10T00:00:00Z,26.5545,-82.1715,1.602,35.82,1111122 
SCCF RECON,ioos:station:SCCF:51:1,2009-02-10T01:00:00Z,26.5545,-82.1715,1.68,35.8,1111122 
SCCF RECON,ioos:station:SCCF:51:1,2009-02-10T02:00:00Z,26.5545,-82.1715,1.76,35.7,1111122 
SCCF RECON,ioos:station:SCCF:51:1,2009-02-10T03:00:00Z,26.5545,-82.1715,1.888,35.63,1111122 
SCCF RECON,ioos:station:SCCF:51:1,2009-02-10T04:00:00Z,26.5545,-82.1715,1.994,35.6,1111122 
SCCF RECON,ioos:station:SCCF:51:1,2009-02-10T05:00:00Z,26.5545,-82.1715,2.072,35.6,1111122 
SCCF RECON,ioos:station:SCCF:51:1,2009-02-10T06:00:00Z,26.5545,-82.1715,2.1,35.67,1111122 
SCCF RECON,ioos:station:SCCF:51:1,2009-02-10T07:00:00Z,26.5545,-82.1715,2.051,35.63,1111122 
SCCF RECON,ioos:station:SCCF:51:1,2009-02-10T08:00:00Z,26.5545,-82.1715,1.95,35.68,1111122 
SCCF RECON,ioos:station:SCCF:51:1,2009-02-10T09:00:00Z,26.5545,-82.1715,1.81,35.74,1111122 
SCCF RECON,ioos:station:SCCF:51:1,2009-02-10T10:00:00Z,26.5545,-82.1715,1.66,35.82,1111122 
SCCF RECON,ioos:station:SCCF:51:1,2009-02-10T11:00:00Z,26.5545,-82.1715,1.53,35.64,1111122 
SCCF RECON,ioos:station:SCCF:51:1,2009-02-10T12:00:00Z,26.5545,-82.1715,1.409,35.66,1111122 
SCCF RECON,ioos:station:SCCF:51:1,2009-02-10T13:00:00Z,26.5545,-82.1715,1.33,35.81,1111122 
SCCF RECON,ioos:station:SCCF:51:1,2009-02-10T14:00:00Z,26.5545,-82.1715,1.34,35.85,1111122 
SCCF RECON,ioos:station:SCCF:51:1,2009-02-10T15:00:00Z,26.5545,-82.1715,1.463,35.84,1111122 
SCCF RECON,ioos:station:SCCF:51:1,2009-02-10T16:00:00Z,26.5545,-82.1715,1.612,35.71,1111122 
SCCF RECON,ioos:station:SCCF:51:1,2009-02-10T17:00:00Z,26.5545,-82.1715,1.752,35.64,1111122 
SCCF RECON,ioos:station:SCCF:51:1,2009-02-10T18:00:00Z,26.5545,-82.1715,1.845,35.64,1111122 
SCCF RECON,ioos:station:SCCF:51:1,2009-02-10T19:00:00Z,26.5545,-82.1715,1.897,35.64,1111122 
SCCF RECON,ioos:station:SCCF:51:1,2009-02-10T20:00:00Z,26.5545,-82.1715,1.869,35.64,1111122 
SCCF RECON,ioos:station:SCCF:51:1,2009-02-10T21:00:00Z,26.5545,-82.1715,1.798,35.64,1111122 
SCCF RECON,ioos:station:SCCF:51:1,2009-02-10T22:00:00Z,26.5545,-82.1715,1.716,35.58,1111122 
SCCF RECON,ioos:station:SCCF:51:1,2009-02-10T23:00:00Z,26.5545,-82.1715,1.641,35.6,1111122 
SCCF RECON,ioos:station:SCCF:51:1,2009-02-11T00:00:00Z,26.5545,-82.1715,1.599,35.62,1111122 
SCCF RECON,ioos:station:SCCF:51:1,2009-02-11T01:00:00Z,26.5545,-82.1715,1.6,35.64,1111122 
SCCF RECON,ioos:station:SCCF:51:1,2009-02-11T02:00:00Z,26.5545,-82.1715,1.65,35.58,1111122 
SCCF RECON,ioos:station:SCCF:51:1,2009-02-11T03:00:00Z,26.5545,-82.1715,1.75,35.35,1111122 
SCCF RECON,ioos:station:SCCF:51:1,2009-02-11T04:00:00Z,26.5545,-82.1715,1.893,35.58,1111122 
SCCF RECON,ioos:station:SCCF:51:1,2009-02-11T05:00:00Z,26.5545,-82.1715,2.035,35.59,1111122 
SCCF RECON,ioos:station:SCCF:51:1,2009-02-11T06:00:00Z,26.5545,-82.1715,2.131,35.58,1111122 
SCCF RECON,ioos:station:SCCF:51:1,2009-02-11T07:00:00Z,26.5545,-82.1715,2.15,35.59,1111122 
SCCF RECON,ioos:station:SCCF:51:1,2009-02-11T08:00:00Z,26.5545,-82.1715,2.08,35.58,1111122 
SCCF RECON,ioos:station:SCCF:51:1,2009-02-11T09:00:00Z,26.5545,-82.1715,1.969,35.42,1111122 
SCCF RECON,ioos:station:SCCF:51:1,2009-02-11T10:00:00Z,26.5545,-82.1715,1.834,35.58,1111122 
SCCF RECON,ioos:station:SCCF:51:1,2009-02-11T11:00:00Z,26.5545,-82.1715,1.707,35.29,1111122 
SCCF RECON,ioos:station:SCCF:51:1,2009-02-11T12:00:00Z,26.5545,-82.1715,1.594,35.15,1111122 
SCCF RECON,ioos:station:SCCF:51:1,2009-02-11T13:00:00Z,26.5545,-82.1715,1.505,35.19,1111122 
SCCF RECON,ioos:station:SCCF:51:1,2009-02-11T14:00:00Z,26.5545,-82.1715,1.471,35.15,1111122 
SCCF RECON,ioos:station:SCCF:51:1,2009-02-11T15:00:00Z,26.5545,-82.1715,1.543,35.3,1111122 
SCCF RECON,ioos:station:SCCF:51:1,2009-02-11T16:00:00Z,26.5545,-82.1715,1.661,35.32,1111122 
SCCF RECON,ioos:station:SCCF:51:1,2009-02-11T17:00:00Z,26.5545,-82.1715,1.821,35.42,1111122 
SCCF RECON,ioos:station:SCCF:51:1,2009-02-11T18:00:00Z,26.5545,-82.1715,1.942,35.45,1111122 